Time,TemperatureF,DewpointF,PressureIn,WindDirection,WindDirectionDegrees,WindSpeedMPH,WindSpeedGustMPH,Humidity,HourlyPrecipIn,Conditions,Clouds,dailyrainin,SoftwareType,DateUTC
2013-07-29 00:08:00,59.9,57.0,30.00,NW,306,0.0,3.0,91,0.00,,,0.05,weatherlink.com 1.10,2013-07-29 04:08:00,
2013-07-29 00:23:00,58.8,57.0,30.00,West,281,0.0,2.0,93,0.00,,,0.05,weatherlink.com 1.10,2013-07-29 04:23:00,
2013-07-29 00:38:00,62.0,57.0,29.99,NNW,328,0.0,7.0,83,0.00,,,0.05,weatherlink.com 1.10,2013-07-29 04:38:00,
2013-07-29 00:53:00,61.1,56.0,30.00,WNW,284,2.0,8.0,84,0.00,,,0.00,weatherlink.com 1.10,2013-07-29 04:53:00,
2013-07-29 01:08:00,60.1,56.0,30.00,WNW,283,1.0,5.0,86,0.00,,,0.00,weatherlink.com 1.10,2013-07-29 05:08:00,
2013-07-29 01:23:00,60.2,56.0,30.00,West,275,0.0,6.0,85,0.00,,,0.00,weatherlink.com 1.10,2013-07-29 05:23:00,
2013-07-29 01:38:00,59.4,56.0,30.01,NW,319,0.0,2.0,87,0.00,,,0.00,weatherlink.com 1.10,2013-07-29 05:38:00,
2013-07-29 01:53:00,58.2,55.0,30.01,NW,319,0.0,0.0,89,0.00,,,0.00,weatherlink.com 1.10,2013-07-29 05:53:00,
2013-07-29 02:08:00,58.3,55.0,30.01,NW,319,0.0,1.0,89,0.00,,,0.00,weatherlink.com 1.10,2013-07-29 06:08:00,
2013-07-29 02:23:00,59.8,55.0,30.01,NNW,328,0.0,1.0,85,0.00,,,0.00,weatherlink.com 1.10,2013-07-29 06:23:00,
2013-07-29 02:38:00,58.8,55.0,30.01,NNW,328,0.0,1.0,87,0.00,,,0.00,weatherlink.com 1.10,2013-07-29 06:38:00,
2013-07-29 02:53:00,57.3,55.0,30.02,NNW,328,0.0,0.0,91,0.00,,,0.00,weatherlink.com 1.10,2013-07-29 06:53:00,
2013-07-29 03:08:00,56.6,55.0,30.02,NNW,328,0.0,0.0,93,0.00,,,0.00,weatherlink.com 1.10,2013-07-29 07:08:00,
2013-07-29 03:23:00,56.1,54.0,30.02,NNW,328,0.0,2.0,94,0.00,,,0.00,weatherlink.com 1.10,2013-07-29 07:23:00,
2013-07-29 03:38:00,55.9,54.0,30.02,NW,323,0.0,1.0,94,0.00,,,0.00,weatherlink.com 1.10,2013-07-29 07:38:00,
2013-07-29 03:53:00,56.0,54.0,30.02,North,5,0.0,1.0,94,0.00,,,0.00,weatherlink.com 1.10,2013-07-29 07:53:00,
2013-07-29 04:08:00,55.8,54.0,30.02,North,5,0.0,0.0,93,0.00,,,0.00,weatherlink.com 1.10,2013-07-29 08:08:00,
2013-07-29 04:23:00,55.5,54.0,30.02,North,5,0.0,0.0,93,0.00,,,0.00,weatherlink.com 1.10,2013-07-29 08:23:00,
2013-07-29 04:38:00,54.7,53.0,30.02,North,5,0.0,0.0,94,0.00,,,0.00,weatherlink.com 1.10,2013-07-29 08:38:00,
2013-07-29 04:53:00,54.1,53.0,30.03,North,5,0.0,0.0,95,0.00,,,0.00,weatherlink.com 1.10,2013-07-29 08:53:00,
2013-07-29 05:08:00,53.6,52.0,30.03,North,5,0.0,1.0,95,0.00,,,0.00,weatherlink.com 1.10,2013-07-29 09:08:00,
2013-07-29 05:23:00,53.2,52.0,30.03,North,355,0.0,0.0,96,0.00,,,0.00,weatherlink.com 1.10,2013-07-29 09:23:00,
2013-07-29 05:38:00,53.5,52.0,30.04,North,350,0.0,1.0,96,0.00,,,0.00,weatherlink.com 1.10,2013-07-29 09:38:00,
2013-07-29 05:54:00,53.0,52.0,30.04,North,350,0.0,0.0,96,0.00,,,0.00,weatherlink.com 1.10,2013-07-29 09:54:00,
2013-07-29 06:09:00,52.0,51.0,30.05,North,350,0.0,0.0,96,0.00,,,0.00,weatherlink.com 1.10,2013-07-29 10:09:00,
2013-07-29 06:24:00,51.2,50.0,30.05,North,350,0.0,0.0,96,0.00,,,0.00,weatherlink.com 1.10,2013-07-29 10:24:00,
2013-07-29 06:39:00,50.3,49.0,30.06,NNW,339,0.0,1.0,96,0.00,,,0.00,weatherlink.com 1.10,2013-07-29 10:39:00,
2013-07-29 07:09:00,51.5,51.0,30.07,NNW,333,0.0,0.0,97,0.00,,,0.00,weatherlink.com 1.10,2013-07-29 11:09:00,
2013-07-29 07:24:00,52.1,51.0,30.07,NNW,333,0.0,0.0,97,0.00,,,0.00,weatherlink.com 1.10,2013-07-29 11:24:00,
2013-07-29 07:54:00,53.3,53.0,30.08,NNW,333,0.0,2.0,97,0.00,,,0.00,weatherlink.com 1.10,2013-07-29 11:54:00,
2013-07-29 08:24:00,55.0,54.0,30.09,NNW,333,0.0,0.0,97,0.00,,,0.00,weatherlink.com 1.10,2013-07-29 12:24:00,
2013-07-29 08:54:00,57.6,57.0,30.09,NNE,20,0.0,0.0,96,0.00,,,0.00,weatherlink.com 1.10,2013-07-29 12:54:00,
2013-07-29 09:24:00,59.7,57.0,30.09,West,261,0.0,5.0,90,0.00,,,0.00,weatherlink.com 1.10,2013-07-29 13:24:00,
2013-07-29 09:39:00,61.3,57.0,30.09,WSW,246,6.0,7.0,86,0.00,,,0.00,weatherlink.com 1.10,2013-07-29 13:39:00,
2013-07-29 09:54:00,62.1,56.0,30.09,West,279,9.0,10.0,81,0.00,,,0.00,weatherlink.com 1.10,2013-07-29 13:54:00,
2013-07-29 10:09:00,62.8,58.0,30.08,NW,315,0.0,9.0,84,0.00,,,0.00,weatherlink.com 1.10,2013-07-29 14:09:00,
2013-07-29 10:24:00,63.6,57.0,30.08,NW,315,7.0,12.0,80,0.00,,,0.00,weatherlink.com 1.10,2013-07-29 14:24:00,
2013-07-29 10:39:00,64.2,58.0,30.08,North,355,4.0,9.0,79,0.00,,,0.00,weatherlink.com 1.10,2013-07-29 14:39:00,
2013-07-29 10:54:00,65.3,58.0,30.09,West,263,4.0,12.0,78,0.00,,,0.00,weatherlink.com 1.10,2013-07-29 14:54:00,
2013-07-29 11:24:00,66.5,56.0,30.08,WNW,293,4.0,8.0,69,0.00,,,0.00,weatherlink.com 1.10,2013-07-29 15:24:00,
2013-07-29 11:40:00,66.9,56.0,30.09,West,274,9.0,9.0,69,0.00,,,0.00,weatherlink.com 1.10,2013-07-29 15:40:00,
2013-07-29 11:55:00,67.6,54.0,30.08,WNW,299,0.0,7.0,63,0.00,,,0.00,weatherlink.com 1.10,2013-07-29 15:55:00,
2013-07-29 12:10:00,68.4,54.0,30.09,NW,317,2.0,8.0,60,0.00,,,0.00,weatherlink.com 1.10,2013-07-29 16:10:00,
2013-07-29 12:25:00,69.1,54.0,30.08,WNW,303,0.0,5.0,58,0.00,,,0.00,weatherlink.com 1.10,2013-07-29 16:25:00,
2013-07-29 12:55:00,69.8,51.0,30.08,WNW,293,0.0,7.0,52,0.00,,,0.00,weatherlink.com 1.10,2013-07-29 16:55:00,
2013-07-29 13:10:00,70.3,53.0,30.08,West,267,3.0,7.0,54,0.00,,,0.00,weatherlink.com 1.10,2013-07-29 17:10:00,
2013-07-29 13:25:00,70.3,52.0,30.08,WNW,290,2.0,8.0,52,0.00,,,0.00,weatherlink.com 1.10,2013-07-29 17:25:00,
2013-07-29 13:40:00,71.2,53.0,30.08,WNW,284,0.0,6.0,53,0.00,,,0.00,weatherlink.com 1.10,2013-07-29 17:40:00,
2013-07-29 14:10:00,71.8,53.0,30.08,NNW,330,1.0,6.0,52,0.00,,,0.00,weatherlink.com 1.10,2013-07-29 18:10:00,
2013-07-29 14:25:00,72.2,56.0,30.07,WSW,247,7.0,8.0,57,0.00,,,0.00,weatherlink.com 1.10,2013-07-29 18:25:00,
2013-07-29 14:40:00,72.7,58.0,30.07,NW,310,0.0,7.0,60,0.00,,,0.00,weatherlink.com 1.10,2013-07-29 18:40:00,
2013-07-29 14:55:00,72.8,60.0,30.06,SW,223,5.0,9.0,65,0.00,,,0.00,weatherlink.com 1.10,2013-07-29 18:55:00,
2013-07-29 15:10:00,71.8,59.0,30.06,SW,217,8.0,11.0,65,0.00,,,0.00,weatherlink.com 1.10,2013-07-29 19:10:00,
2013-07-29 15:25:00,72.1,59.0,30.06,SSW,210,0.0,6.0,63,0.00,,,0.00,weatherlink.com 1.10,2013-07-29 19:25:00,
2013-07-29 16:25:00,73.6,52.0,30.05,WSW,252,4.0,9.0,47,0.00,,,0.00,weatherlink.com 1.10,2013-07-29 20:25:00,
2013-07-29 16:40:00,73.7,53.0,30.05,WNW,288,2.0,10.0,48,0.00,,,0.00,weatherlink.com 1.10,2013-07-29 20:40:00,
2013-07-29 16:55:00,73.8,53.0,30.05,West,273,3.0,10.0,48,0.00,,,0.00,weatherlink.com 1.10,2013-07-29 20:55:00,
2013-07-29 17:10:00,74.0,52.0,30.05,West,267,9.0,10.0,47,0.00,,,0.00,weatherlink.com 1.10,2013-07-29 21:10:00,
2013-07-29 17:25:00,73.6,54.0,30.05,WSW,249,6.0,10.0,50,0.00,,,0.00,weatherlink.com 1.10,2013-07-29 21:25:00,
2013-07-29 17:40:00,73.9,54.0,30.05,NW,325,3.0,10.0,50,0.00,,,0.00,weatherlink.com 1.10,2013-07-29 21:40:00,
2013-07-29 17:55:00,73.9,56.0,30.06,NNW,338,3.0,6.0,53,0.00,,,0.00,weatherlink.com 1.10,2013-07-29 21:55:00,
2013-07-29 18:25:00,71.7,57.0,30.06,NNW,339,3.0,8.0,61,0.00,,,0.00,weatherlink.com 1.10,2013-07-29 22:25:00,
2013-07-29 18:40:00,71.8,57.0,30.07,West,271,0.0,7.0,61,0.00,,,0.00,weatherlink.com 1.10,2013-07-29 22:40:00,
2013-07-29 19:10:00,70.6,57.0,30.08,WNW,288,1.0,7.0,62,0.00,,,0.00,weatherlink.com 1.10,2013-07-29 23:10:00,
2013-07-29 19:25:00,69.4,56.0,30.09,NNW,338,4.0,6.0,62,0.00,,,0.00,weatherlink.com 1.10,2013-07-29 23:25:00,
2013-07-29 19:41:00,68.6,55.0,30.09,NNW,347,4.0,7.0,63,0.00,,,0.00,weatherlink.com 1.10,2013-07-29 23:41:00,
2013-07-29 19:55:00,68.1,55.0,30.10,NNW,343,1.0,5.0,64,0.00,,,0.00,weatherlink.com 1.10,2013-07-29 23:55:00,
2013-07-29 20:40:00,65.3,54.0,30.11,NNE,12,0.0,0.0,68,0.00,,,0.00,weatherlink.com 1.10,2013-07-30 00:40:00,
2013-07-29 20:55:00,64.7,53.0,30.11,NNW,333,0.0,2.0,67,0.00,,,0.00,weatherlink.com 1.10,2013-07-30 00:55:00,
2013-07-29 21:10:00,64.7,54.0,30.12,NNW,334,0.0,2.0,68,0.00,,,0.00,weatherlink.com 1.10,2013-07-30 01:10:00,
2013-07-29 21:26:00,63.2,55.0,30.14,NNW,334,0.0,0.0,74,0.00,,,0.00,weatherlink.com 1.10,2013-07-30 01:26:00,
2013-07-29 21:41:00,61.4,56.0,30.16,NNW,334,0.0,0.0,81,0.00,,,0.00,weatherlink.com 1.10,2013-07-30 01:41:00,
2013-07-29 21:56:00,60.7,56.0,30.16,NNW,334,0.0,0.0,83,0.00,,,0.00,weatherlink.com 1.10,2013-07-30 01:56:00,
2013-07-29 22:11:00,60.4,56.0,30.18,NNW,334,0.0,0.0,85,0.00,,,0.00,weatherlink.com 1.10,2013-07-30 02:11:00,
2013-07-29 22:26:00,59.5,55.0,30.18,NNW,334,0.0,0.0,86,0.00,,,0.00,weatherlink.com 1.10,2013-07-30 02:26:00,
2013-07-29 23:26:00,56.9,54.0,30.18,NNW,334,0.0,0.0,91,0.00,,,0.00,weatherlink.com 1.10,2013-07-30 03:26:00,
2013-07-29 23:41:00,56.4,54.0,30.18,NNW,334,0.0,0.0,92,0.00,,,0.00,weatherlink.com 1.10,2013-07-30 03:41:00,